CAPE
66 446 1142 960 961 713 659 822 890 976 1181 1353 1486 1551 1668 1883 2069 2149 2123 2063 2052 2364 2238 2361 2176 1505 1144 1820 2011 2087 2341 2101 2098 2054 1918 1534 1723 1692 1305 1122 1264 1270 1604
160 428 863 1024 999 802 757 936 955 1053 1255 1467 1433 1039 1311 1370 1564 1543 1587 1780 1622 1658 2516 2363 2205 1173 1364 1854 2269 2175 1914 1946 1984 1976 1712 1734 1664 1310 1385 1227 1385 1592 1764
148 525 707 1135 1167 940 782 999 1011 1100 1318 1479 1584 1385 1268 1295 1422 1606 2349 2130 1889 1601 1725 2179 1760 1211 2092 1734 1915 2123 2052 1944 1509 1614 1586 1385 1828 1424 1472 1195 1793 1729 1785
144 122 863 992 1135 958 942 1025 1133 1102 1242 1524 1681 1602 1411 1320 1303 1337 1479 1848 2173 2150 1750 1485 2111 1880 2376 2274 2289 1848 1778 1821 1272 765 865 953 1174 1779 1811 1768 1589 1836 1807
46 97 1180 983 827 933 989 1140 1234 1221 1317 1578 1689 1696 1454 1301 1203 1165 1236 1286 1322 1711 2165 1985 1538 1943 2036 1978 1431 1072 1455 1167 337 702 799 1059 1059 1833 1809 1730 1673 1710 1602
95 672 1449 1190 850 591 1438 1207 1371 1298 1370 1672 1686 1698 1529 1262 1218 1270 1416 1497 1758 1638 1317 1848 1735 1702 1305 1368 1475 1022 623 217 227 437 850 977 917 1611 1757 1715 1889 1822 1791
1027 1233 1251 1544 913 942 1480 1377 1692 1587 1598 1507 1537 1596 1425 1399 1369 1383 1132 862 981 908 1297 1470 676 891 1206 1090 650 1074 379 32 131 595 839 1162 1609 1870 1823 1568 1747 1672 1828
996 724 1075 1618 1512 1224 1357 1556 1498 1435 1050 677 423 469 208 247 236 836 800 1209 1368 1374 1292 1042 745 1220 776 779 488 163 661 149 209 389 710 882 1340 1846 1787 1432 1528 1530 1402
487 684 1004 1121 1296 1374 1502 1615 1665 1473 849 347 197 214 75 146 244 662 878 659 618 810 1149 1286 934 1030 985 580 316 492 66 5 145 141 173 865 1311 1567 1546 1522 1591 1566 1470
478 397 597 759 991 1303 1508 1646 1631 1359 802 627 482 290 62 177 163 584 245 336 394 354 550 705 980 807 964 911 473 544 360 155 23 226 251 387 885 1008 1235 1180 1474 1559 1511
488 465 539 739 1084 1203 1302 1440 1479 1257 927 374 52 3 0 3 109 533 49 4 23 92 348 729 753 756 696 920 755 579 245 162 56 45 244 166 158 189 719 987 1260 1524 1620
686 561 542 654 731 906 953 1378 1338 1349 946 646 35 0 0 0 15 6 0 1 63 182 283 564 534 709 859 487 584 389 404 107 166 14 121 24 10 281 330 206 550 1203 1789
785 722 837 826 756 411 645 669 1149 1302 1041 350 4 0 0 0 0 0 39 159 194 413 600 515 357 738 617 184 344 259 492 407 332 97 69 95 123 91 180 305 406 1040 1352
465 814 791 801 740 295 1026 953 929 777 528 328 199 2 0 0 0 0 33 79 108 332 542 217 667 921 739 572 423 330 351 302 400 340 90 106 111 190 369 348 486 511 1400
468 369 525 377 451 375 850 924 837 488 422 439 403 388 13 2 0 0 351 414 243 306 167 507 769 502 893 825 892 396 342 144 398 38 179 200 60 49 340 402 548 633 470
236 369 493 492 830 749 612 592 590 709 657 713 585 886 464 185 132 171 4 239 63 216 286 792 753 618 532 100 588 833 784 552 292 317 104 75 511 169 500 566 718 711 716
411 312 792 706 435 1077 734 607 884 916 899 705 702 817 1045 657 381 188 1 12 227 59 545 997 955 1114 905 600 702 607 1091 1243 1242 593 340 245 763 432 581 821 876 501 1049
362 517 806 816 841 1089 927 1067 1249 962 930 615 516 792 979 776 244 42 34 14 437 574 557 624 1018 289 489 895 659 406 523 772 1313 1049 705 262 705 696 734 691 749 1037 1140
410 316 546 941 968 1204 1160 1219 1127 1281 948 744 806 675 843 700 103 188 6 10 4 642 588 892 779 620 1130 865 704 970 1055 1241 539 895 843 572 791 951 592 663 734 839 1037
302 310 453 941 855 1136 1202 1289 1388 1023 1067 950 620 752 919 518 394 341 3 108 348 686 635 662 696 544 630 1125 820 1010 779 1184 753 342 337 1159 829 703 715 763 526 756 982
0 122 976 853 965 915 1379 965 888 1189 1047 1009 821 627 464 522 596 246 356 4 38 401 613 122 260 132 150 741 733 404 0 506 1238 493 317 938 530 649 584 871 711 480 836
124 152 869 1159 1130 1399 1291 1403 1356 1062 968 836 685 207 637 681 667 124 535 558 348 164 772 880 70 499 0 196 566 228 150 254 400 689 833 406 752 685 524 770 722 457 753
426 883 1131 1191 1287 1620 1577 1741 1294 1134 861 642 563 652 92 650 602 118 184 571 705 783 462 1041 244 362 426 528 667 408 73 7 88 453 305 347 701 570 636 581 739 642 472
848 1180 1183 1406 1820 1944 1990 1693 1449 989 734 432 98 101 201 452 447 563 517 480 673 882 498 871 688 787 623 522 165 1088 207 23 104 131 206 0 147 296 651 601 563 655 464
498 724 1290 1655 1763 1938 2121 1462 1046 947 1050 638 479 345 1050 909 677 407 545 824 1008 747 603 773 698 909 1027 672 490 367 98 0 0 67 0 151 398 664 944 568 479 514 519
957 983 1417 1769 1918 2059 2008 1520 1013 1400 1030 808 699 840 678 753 1067 1150 659 1039 1015 1000 968 982 1033 1049 734 1007 978 757 278 21 27 82 41 24 105 167 749 1333 351 571 526
CIN
-98 -54 -0 -0 -0 -10 -15 -9 -10 -4 -2 -1 -1 -1 -1 -1 -0 -0 -0 -0 -0 -0 -0 -0 -0 -7 -32 -4 -4 -2 -0 -0 -1 -1 -1 -6 -2 -1 -6 -6 -3 -0 -0
-119 -77 -20 -0 -0 -8 -13 -3 -13 -11 -2 -1 -0 -6 -1 -0 -0 -3 -5 -0 -6 -7 -0 -0 -0 -14 -11 -0 -0 -0 -4 -5 -3 -1 -0 -0 -3 -2 -1 -1 -5 -0 -0
-114 -74 -36 -1 -0 -5 -12 -2 -2 -2 -0 -1 -1 -0 -2 -2 -1 -0 -0 -0 -0 -5 -3 -0 -3 -16 -0 -1 -0 -0 -3 -3 -2 -1 -3 -1 -0 -9 -7 -9 -0 -0 -0
-104 -158 -30 -13 -2 -9 -6 -10 -3 -2 -1 -0 -0 -0 -0 -0 -0 -0 -0 -0 -0 -0 -1 -2 -0 -0 -0 -0 -0 -11 -16 -5 -3 -20 -5 -2 -0 -0 -0 -0 -0 -0 -0
-122 -104 -10 -21 -21 -11 -9 -4 -3 -3 -1 -0 -0 -0 -0 -0 -0 -2 -2 -0 -1 -0 -0 -0 -0 -0 -0 -0 -10 -8 -18 -24 -48 -19 -15 -3 -2 -0 -0 -0 -0 -0 -0
-47 -23 -7 -11 -22 -34 -0 -3 -0 -5 -1 -0 -0 -0 -0 -0 -0 -0 -0 -0 -0 -0 -1 -0 -0 -0 -3 -2 -2 -13 -16 -30 -38 -19 -13 -2 -19 -0 -0 -0 -0 -0 -0
-10 -40 -11 -0 -19 -18 -0 -1 -0 -0 -0 -1 -1 -0 -0 -0 -0 -0 -0 -9 -5 -3 -0 -1 -9 -7 -5 -8 -25 -10 -28 -43 -11 -15 -16 -11 -1 -0 -0 -1 -0 -0 -0
-32 -37 -19 -0 -1 -9 -4 -1 -2 -2 -3 -12 -18 -15 -35 -25 -18 -1 -3 -0 -0 -0 -0 -2 -2 -2 -16 -11 -22 -49 -18 -68 -18 -19 -25 -22 -9 -0 -0 -9 -10 -1 -0
-29 -27 -12 -0 -0 -1 -1 -0 -0 -0 -3 -20 -46 -47 -75 -33 -19 -3 -3 -5 -10 -7 -0 -0 -1 -2 -8 -23 -38 -31 -53 -68 -30 -70 -33 -21 -3 -1 -1 -10 -9 -3 -1
-5 -18 -11 -2 -0 -0 -0 -0 -0 -0 -4 -34 -24 -44 -55 -28 -27 -5 -9 -15 -19 -22 -15 -12 -2 -14 -5 -2 -27 -17 -34 -32 -70 -30 -14 -35 -11 -7 -13 -19 -10 -13 -3
-8 -14 -9 -2 -0 -1 -0 -0 -0 -0 -0 -31 -51 -44 -0 -42 -24 -7 -19 -35 -61 -39 -25 -15 -10 -26 -30 -1 -6 -15 -19 -45 -48 -53 -11 -18 -28 -16 -14 -12 -11 -9 -1
-1 -9 -5 -6 -1 -2 -0 -5 -2 -1 -2 -15 -88 -0 -0 -0 -52 -81 -0 -35 -29 -23 -30 -26 -28 -32 -8 -3 -13 -47 -28 -75 -37 -43 -50 -42 -63 -15 -16 -45 -25 -8 -0
-22 -23 -20 -9 -7 -4 -9 -18 -3 -4 -1 -35 -45 -0 -0 -0 -0 -0 -47 -16 -10 -13 -11 -11 -36 -30 -19 -81 -51 -54 -24 -32 -23 -39 -48 -34 -23 -31 -15 -16 -24 -9 -1
-22 -24 -9 -10 -7 -11 -11 -9 -10 -17 -9 -29 -60 -21 -0 -0 -0 -0 -61 -32 -37 -11 -7 -37 -28 -21 -20 -39 -38 -52 -57 -42 -12 -7 -85 -32 -21 -14 -16 -23 -13 -26 -0
-13 -18 -6 -13 -17 -19 -6 -7 -17 -39 -20 -21 -26 -42 -107 -115 -0 -0 -11 -11 -24 -13 -21 -21 -14 -9 -13 -13 -6 -31 -50 -195 -4 -52 -81 -46 -28 -33 -14 -18 -12 -19 -49
-22 -9 -13 -11 -13 -14 -15 -24 -33 -22 -5 -9 -30 -3 -18 -38 -21 -32 -137 -12 -28 -24 -16 -14 -10 -16 -40 -68 -34 -17 -11 -43 -57 -43 -102 -101 -26 -44 -20 -15 -11 -26 -21
-37 -28 -21 -29 -22 -5 -15 -25 -12 -17 -1 -22 -31 -16 -0 -6 -28 -44 -115 -128 -30 -41 -18 -3 -9 -9 -11 -38 -31 -19 -9 -6 -6 -57 -70 -78 -36 -39 -42 -18 -11 -39 -4
-34 -12 -16 -17 -26 -18 -14 -10 -7 -18 -5 -32 -50 -12 -3 -12 -64 -102 -84 -75 -11 -14 -12 -23 -4 -62 -18 -10 -12 -163 -38 -24 -5 -29 -69 -62 -13 -27 -23 -36 -28 -5 -0
-21 -18 -14 -2 -16 -11 -6 -21 -20 -7 -5 -11 -26 -19 -18 -11 -83 -56 -150 -45 -118 -26 -25 -13 -16 -28 -16 -14 -14 -12 -16 -19 -18 -6 -36 -80 -30 -28 -56 -54 -45 -38 -19
-37 -32 -26 -9 -12 -7 -6 -15 -4 -5 -1 -4 -15 -15 -9 -13 -32 -38 -182 -70 -30 -9 -16 -26 -42 -46 -26 -6 -7 -7 -27 -10 -23 -27 -32 -21 -42 -52 -28 -44 -55 -48 -40
-0 -100 -5 -7 -14 -18 -13 -26 -30 -5 -8 -4 -13 -9 -5 -5 -13 -35 -26 -182 -95 -30 -19 -71 -45 -66 -71 -25 -7 -51 -0 -49 -4 -30 -32 -13 -51 -46 -37 -36 -54 -81 -58
-164 -125 -15 -13 -18 -10 -17 -5 -10 -15 -12 -22 -47 -132 -14 -10 -10 -55 -14 -7 -32 -43 -14 -31 -79 -32 -0 -178 -7 -48 -61 -34 -20 -20 -26 -8 -16 -38 -36 -54 -51 -67 -44
-38 -8 -5 -8 -18 -8 -5 -2 -13 -12 -32 -59 -67 -43 -72 -12 -17 -47 -28 -6 -12 -10 -35 -17 -42 -38 -46 -5 -22 -20 -30 -77 -73 -48 -59 -79 -16 -15 -22 -33 -29 -33 -41
-7 -8 -24 -21 -4 -2 -1 -2 -6 -17 -20 -70 -131 -120 -96 -55 -45 -17 -10 -19 -19 -7 -30 -8 -24 -23 -18 -22 -25 -6 -91 -119 -53 -22 -47 -0 -96 -21 -12 -33 -28 -20 -24
-17 -23 -17 -10 -5 -1 -4 -4 -12 -15 -22 -60 -70 -84 -36 -30 -33 -44 -27 -12 -1 -22 -27 -29 -20 -15 -17 -15 -20 -32 -74 -0 -0 -56 -3 -63 -45 -17 -21 -14 -10 -13 -30
-17 -10 -24 -28 -21 -10 -6 -20 -41 -13 -39 -59 -68 -49 -49 -47 -27 -21 -37 -4 -6 -9 -19 -25 -8 -6 -35 -38 -15 -11 -45 -16 -64 -54 -43 -101 -44 -42 -12 -8 -17 -15 -27
Wind_Speed
25 26 27 27 28 26 26 25 24 23 23 24 23 22 21 20 21 22 22 22 22 23 23 22 21 21 21 20 19 19 18 18 18 19 19 18 17 15 17 19 17 17 15
26 26 25 25 25 24 24 24 24 23 22 20 20 21 22 20 20 20 20 22 22 22 22 22 21 21 20 19 18 17 17 19 20 21 19 18 17 15 16 15 16 16 15
25 25 25 24 23 22 23 22 21 20 19 18 18 18 19 19 20 20 20 21 22 22 22 22 21 21 20 19 18 17 16 16 16 18 20 18 15 15 13 13 15 15 14
25 26 24 22 21 20 20 19 17 17 16 15 15 16 17 18 18 18 18 18 21 22 22 21 21 19 17 16 16 17 16 15 14 12 12 15 13 13 10 12 13 13 13
24 24 23 22 20 19 19 17 16 15 14 13 14 14 14 15 17 18 18 18 19 21 21 20 21 21 19 18 14 14 15 16 14 11 11 11 8 9 9 10 11 12 13
24 22 23 22 21 18 17 17 16 15 15 15 13 13 13 14 15 17 16 15 17 19 19 18 19 19 18 18 17 15 15 16 11 11 11 10 5 5 7 8 9 11 13
20 20 22 21 21 19 18 19 17 17 14 13 12 11 11 13 14 14 14 15 17 16 16 16 17 17 16 17 18 17 17 18 14 12 10 10 2 4 5 6 9 9 11
20 19 20 20 20 19 18 17 16 15 12 9 9 9 10 12 12 13 15 15 15 14 14 13 14 14 14 15 16 16 16 20 11 10 11 5 5 4 4 5 7 7 9
19 17 18 19 18 18 18 16 15 14 11 10 9 9 10 16 18 18 17 16 15 14 13 13 13 13 13 15 15 15 16 20 11 8 9 6 10 6 3 4 5 5 6
19 18 17 17 17 17 16 17 16 16 16 14 12 10 10 17 19 20 17 17 17 15 14 13 13 13 14 14 15 14 15 17 20 9 7 8 11 7 3 6 5 5 5
13 15 15 15 16 16 15 15 16 15 15 15 15 12 11 18 20 22 20 18 18 18 15 14 13 14 14 14 16 16 15 15 18 20 16 11 7 5 7 10 7 4 5
11 12 12 15 16 17 17 13 14 14 13 14 13 13 15 15 21 23 21 18 19 17 18 16 14 15 14 14 14 16 15 16 15 16 9 7 6 4 11 15 9 6 6
12 11 14 17 17 18 11 12 12 14 13 13 14 14 12 9 11 22 20 19 19 18 18 16 14 15 15 14 16 16 16 18 20 17 16 11 5 2 21 30 14 11 9
10 12 16 19 19 10 11 10 10 12 13 13 13 12 13 13 16 17 19 21 20 18 18 17 15 14 15 14 15 16 16 15 20 19 19 19 18 5 32 34 34 25 19
9 11 9 16 15 15 11 10 8 11 13 11 11 11 12 12 12 12 12 16 19 19 18 18 17 16 14 15 14 10 14 10 20 16 21 21 26 31 32 33 34 33 32
3 4 8 8 8 10 6 8 8 10 12 10 11 11 12 10 10 9 24 22 21 20 19 18 17 16 9 16 17 13 13 16 19 20 20 22 26 28 30 31 31 31 32
8 3 2 4 8 8 8 7 7 6 8 9 9 9 10 10 12 13 16 18 22 18 20 19 10 13 14 15 14 15 14 15 17 20 20 22 25 28 27 28 29 28 31
11 5 5 5 9 11 9 8 6 6 6 7 8 8 10 11 11 13 10 23 21 20 20 20 17 9 15 16 17 15 17 16 16 18 18 18 26 24 26 27 27 30 31
7 12 10 6 12 10 9 6 5 6 7 6 8 7 8 9 10 11 13 24 22 22 20 20 20 15 17 15 14 14 15 16 16 17 19 21 21 23 22 23 26 28 32
18 20 18 5 7 8 10 8 6 11 7 9 8 7 5 7 9 8 16 23 23 23 20 19 20 18 17 17 12 15 15 15 11 16 20 20 20 20 20 19 23 27 31
8 24 24 5 7 10 9 9 8 8 7 8 11 12 12 9 6 6 24 20 25 25 21 17 19 20 18 17 17 16 18 18 17 18 18 14 18 21 18 16 19 25 29
27 25 23 17 15 15 12 10 9 11 9 10 11 14 6 10 8 19 23 19 25 26 22 13 15 20 20 21 15 14 13 14 19 19 17 20 19 16 20 16 17 21 22
26 23 22 19 17 17 15 11 9 13 13 14 15 13 8 19 6 16 26 27 26 26 24 16 11 15 18 15 13 14 15 14 17 17 21 21 19 1 17 17 19 18 19
20 20 20 19 18 17 15 17 18 16 12 12 13 14 14 15 19 21 25 27 27 26 24 21 16 15 15 17 19 13 17 16 12 12 7 23 23 24 19 13 17 21 20
22 23 22 22 20 18 18 17 16 15 14 13 12 14 15 17 18 20 23 24 24 22 23 23 20 14 14 16 13 11 14 13 12 10 12 18 24 23 26 25 26 11 14
25 24 22 22 20 20 19 17 17 15 14 13 13 13 15 16 18 20 21 22 22 23 23 23 18 14 15 19 7 9 13 10 14 13 10 20 21 22 24 25 29 27 17
Wind_Direction
101 103 102 102 101 96 96 94 88 81 77 75 69 63 58 52 53 55 55 53 52 56 64 65 61 53 51 47 44 42 40 42 44 46 49 50 43 37 52 59 51 50 45
104 107 104 101 100 97 97 97 95 88 80 71 65 62 60 54 51 49 49 54 54 52 52 58 59 57 53 46 42 42 45 52 57 60 52 47 40 36 42 45 45 51 46
102 104 105 105 99 97 99 98 94 84 75 70 63 59 56 52 52 52 47 55 58 57 55 59 62 64 58 51 47 46 46 46 48 56 65 48 38 42 35 39 47 47 45
101 106 105 103 100 98 97 94 92 87 73 65 58 52 50 50 46 43 39 37 50 61 68 65 67 59 52 48 48 53 52 43 32 1 298 47 32 37 32 37 43 41 43
104 103 103 102 100 97 95 91 86 87 77 64 57 49 39 42 48 47 41 36 41 57 75 74 79 94 89 80 54 38 60 65 25 341 8 34 10 25 30 33 35 43 40
109 101 105 103 101 97 93 94 90 86 83 77 58 48 35 36 39 50 32 21 37 71 83 84 83 100 103 105 113 65 84 95 345 15 4 20 339 18 20 25 31 35 45
94 97 107 105 103 101 97 100 94 91 83 75 58 38 24 24 32 30 23 34 88 107 124 115 123 116 113 105 100 102 126 163 117 46 13 19 338 20 3 13 30 25 38
97 98 106 105 104 103 100 97 93 89 76 54 38 19 332 317 349 330 131 131 151 155 151 144 134 118 109 117 120 102 127 160 306 44 50 3 37 9 349 353 22 23 33
98 97 104 106 103 102 102 97 92 84 64 49 26 9 330 284 267 242 176 169 180 179 169 166 155 141 139 142 135 121 137 153 324 281 58 39 81 56 336 344 357 1 8
95 101 106 106 104 104 100 103 97 97 94 78 75 44 341 287 271 203 179 195 208 199 188 177 172 152 154 155 157 145 126 144 183 14 26 90 106 84 301 290 313 347 340
94 99 108 109 110 109 101 105 106 105 103 103 105 96 1 262 248 220 210 203 214 214 197 185 164 144 146 136 171 177 154 137 144 155 247 122 79 57 269 258 280 309 295
108 103 112 116 120 123 122 99 107 103 101 116 104 105 135 154 194 220 216 211 213 206 204 188 161 161 142 149 139 168 152 152 133 135 52 69 100 71 259 246 261 272 277
115 112 122 131 128 129 99 100 93 108 101 115 125 124 114 96 133 212 210 215 235 206 197 167 152 165 151 160 149 158 145 154 180 146 138 117 120 266 243 217 251 252 260
120 123 128 137 134 97 99 90 87 104 126 124 114 110 116 114 152 180 201 239 228 221 188 174 173 163 164 162 155 147 138 136 163 166 151 156 150 158 193 203 198 224 238
125 124 119 132 122 127 109 100 78 105 127 108 100 95 102 104 126 149 149 180 198 226 206 201 200 253 218 217 170 124 164 105 161 151 168 170 175 184 186 176 180 178 180
147 105 108 119 101 106 77 88 86 107 130 96 107 113 120 108 98 93 230 234 244 241 216 202 311 191 32 207 198 170 151 123 134 138 138 168 176 172 170 171 172 177 180
129 186 185 128 118 103 101 80 90 76 88 60 79 86 104 94 112 131 160 273 221 201 225 226 129 142 147 158 173 220 177 164 96 123 146 189 174 171 162 162 168 168 172
263 133 134 125 124 125 111 102 61 26 51 43 54 40 89 90 97 126 119 200 240 240 257 239 206 128 193 215 242 295 211 187 198 106 109 157 180 164 166 162 163 170 174
305 277 281 213 125 108 106 82 59 34 20 51 35 55 104 84 97 101 120 224 221 227 237 228 253 201 235 213 217 193 192 161 145 136 129 145 146 154 144 158 166 170 180
268 245 138 34 70 83 99 91 58 335 8 356 4 14 75 82 97 91 154 206 205 215 203 227 253 243 242 244 174 308 258 221 339 152 176 156 143 144 144 144 160 174 180
15 211 203 356 55 97 98 81 67 36 50 21 9 352 349 11 73 74 211 174 199 220 205 195 270 252 232 230 267 329 243 239 255 189 186 134 140 163 138 135 149 169 175
169 179 162 130 125 130 114 99 54 100 57 23 4 350 105 143 105 262 194 187 203 218 201 151 185 281 229 250 132 66 74 288 241 240 274 242 154 135 151 135 140 155 158
155 152 141 137 130 137 125 95 64 105 35 43 30 46 82 283 100 168 229 214 231 209 203 172 136 170 201 231 94 86 59 50 302 295 253 253 251 231 142 148 159 152 152
109 129 139 138 133 127 123 132 142 131 93 104 151 178 160 161 188 189 206 211 214 209 198 198 175 161 169 197 294 285 12 1 276 51 326 223 247 234 229 140 161 167 167
108 117 122 128 129 126 122 125 136 124 125 128 139 167 161 173 179 184 191 190 194 189 192 198 196 160 179 193 21 113 76 93 120 60 126 198 238 246 237 243 229 145 157
115 114 105 114 110 133 131 107 132 104 115 116 136 147 174 182 178 179 183 183 185 189 196 196 184 170 182 220 124 143 54 64 113 92 82 224 237 229 248 246 236 232 173